DKH1373 ZSPD-RKPC

Flight info

Callsign DKH1373
Flight time N/A
Altitude 37000
Route LAM92D/34L LAMEN A593 SADLI Y590 ELGEP Y722 SOSDO SOSDO2M
Aircraft A320/M-SDE3FGHIRWY/LB1

Departure

Time 2026-05-07 09:50
Airport Shanghai Pudong International Airport (ZSPD)

Arrival

Time N/A
Airport Jeju International Airport (RKPC)
Time Latitude Longitude Altitude Speed Heading
2026-05-07 09:50 31.11828 122.06195 8480 ft 272 kts 174°
2026-05-07 09:50 31.09989 122.06529 7989 ft 267 kts 174°
2026-05-07 09:50 31.08153 122.06819 7423 ft 265 kts 174°
2026-05-07 09:51 31.06334 122.07154 6873 ft 264 kts 173°
2026-05-07 09:51 31.04525 122.07501 6319 ft 263 kts 173°
2026-05-07 09:51 31.02746 122.07834 5750 ft 262 kts 173°
2026-05-07 09:51 31.00954 122.08154 5183 ft 261 kts 173°
2026-05-07 09:52 30.99165 122.08459 4618 ft 259 kts 173°
2026-05-07 09:52 30.97379 122.08751 4049 ft 258 kts 173°
2026-05-07 09:52 30.95605 122.09026 3478 ft 256 kts 176°
2026-05-07 09:52 30.93849 122.08968 3067 ft 246 kts 185°
2026-05-07 09:53 30.92207 122.08853 2982 ft 225 kts 184°
2026-05-07 09:53 30.90709 122.08753 2994 ft 208 kts 184°
2026-05-07 09:53 30.89295 122.08634 2991 ft 201 kts 191°
2026-05-07 09:53 30.87980 122.08139 2984 ft 197 kts 209°
2026-05-07 09:54 30.86878 122.07225 2985 ft 195 kts 226°
2026-05-07 09:54 30.86057 122.05982 2984 ft 193 kts 243°
2026-05-07 09:54 30.85588 122.04544 2985 ft 191 kts 260°
2026-05-07 09:54 30.85492 122.03011 2988 ft 190 kts 276°
2026-05-07 09:55 30.85765 122.01526 2986 ft 187 kts 292°
2026-05-07 09:55 30.86379 122.00196 2984 ft 187 kts 308°
2026-05-07 09:55 30.87241 121.99072 2984 ft 186 kts 314°
2026-05-07 09:55 30.88128 121.97969 2880 ft 187 kts 314°
2026-05-07 09:56 30.89018 121.96861 2705 ft 187 kts 314°
2026-05-07 09:56 30.89891 121.95773 2449 ft 186 kts 314°
2026-05-07 09:56 30.90772 121.94674 2215 ft 185 kts 314°
2026-05-07 09:56 30.91646 121.93580 2080 ft 184 kts 314°
2026-05-07 09:57 30.92523 121.92482 2078 ft 186 kts 314°
2026-05-07 09:57 30.93405 121.91379 1998 ft 186 kts 314°
2026-05-07 09:57 30.94285 121.90278 1919 ft 186 kts 313°
2026-05-07 09:57 30.95190 121.89203 1877 ft 185 kts 322°
2026-05-07 09:58 30.96347 121.88532 1884 ft 185 kts 342°
2026-05-07 09:58 30.97550 121.88083 1888 ft 182 kts 342°
2026-05-07 09:58 30.98748 121.87635 1887 ft 180 kts 342°
2026-05-07 09:58 30.99937 121.87188 1901 ft 181 kts 342°
2026-05-07 09:59 31.01123 121.86743 1897 ft 173 kts 342°
2026-05-07 09:59 31.02229 121.86326 1908 ft 164 kts 342°
2026-05-07 09:59 31.03305 121.85922 1840 ft 161 kts 343°
2026-05-07 09:59 31.04365 121.85523 1683 ft 159 kts 343°
2026-05-07 10:00 31.05409 121.85130 1507 ft 157 kts 342°
2026-05-07 10:00 31.06406 121.84755 1297 ft 145 kts 342°
2026-05-07 10:00 31.07351 121.84399 1105 ft 141 kts 342°
2026-05-07 10:00 31.08281 121.84049 932 ft 139 kts 343°
2026-05-07 10:01 31.09196 121.83704 754 ft 138 kts 343°
2026-05-07 10:01 31.10104 121.83358 585 ft 137 kts 343°
2026-05-07 10:01 31.10999 121.82998 419 ft 135 kts 345°
2026-05-07 10:01 31.11896 121.82662 251 ft 136 kts 347°
2026-05-07 10:02 31.12803 121.82339 63 ft 136 kts 345°
2026-05-07 10:02 31.13642 121.82046 23 ft 101 kts 341°
2026-05-07 10:02 31.14063 121.81881 24 ft 42 kts 341°
2026-05-07 10:02 31.14259 121.81764 24 ft 28 kts 323°
2026-05-07 10:03 31.14375 121.81617 24 ft 23 kts 316°
2026-05-07 10:03 31.14477 121.81500 24 ft 14 kts 322°
2026-05-07 10:03 31.14560 121.81458 23 ft 13 kts 341°
2026-05-07 10:03 31.14655 121.81422 24 ft 15 kts 342°
2026-05-07 10:04 31.14763 121.81382 23 ft 16 kts 342°
2026-05-07 10:04 31.14856 121.81345 24 ft 8 kts 328°
2026-05-07 10:04 31.14862 121.81296 23 ft 6 kts 250°
2026-05-07 10:04 31.14851 121.81255 23 ft 5 kts 264°
2026-05-07 10:05 31.14851 121.81225 23 ft 3 kts 247°
2026-05-07 10:05 31.14840 121.81200 24 ft 7 kts 242°
2026-05-07 10:05 31.14808 121.81117 23 ft 12 kts 251°
2026-05-07 10:05 31.14809 121.81052 24 ft 7 kts 312°
2026-05-07 10:06 31.14846 121.81030 23 ft 5 kts 341°
2026-05-07 10:06 31.14871 121.81034 23 ft 3 kts 45°
2026-05-07 10:06 31.14875 121.81050 23 ft 2 kts 73°
2026-05-07 10:06 31.14878 121.81058 23 ft 1 kts 71°
2026-05-07 10:07 31.14884 121.81081 23 ft 5 kts 72°
2026-05-07 10:07 31.14892 121.81108 23 ft 1 kts 72°
2026-05-07 10:07 31.14892 121.81110 23 ft 0 kts 71°